Terminal Aerodrome Forecast
Issued by NWS

Home | Current Version | Previous Version | Text Only | Print | Product List | Glossary On
Versions: 1 2 3 4 5 6 7 8 9 10 11 12 13 14 15 16 17 18 19
000
FTUS42 KMHX 200000 AAA
TAFPGV
TAF AMD
KPGV 200036Z 2001/2024 03010G15KT P6SM BKN050 OVC070
     FM200700 03010G15KT 5SM BR VCSH OVC010
     FM201400 04012G17KT P6SM OVC030
      AMD LTD TO CLD VIS AND WIND=

USA.gov is the U.S. government's official web portal to all federal, state and local government web resources and services.